Time,TemperatureF,DewpointF,PressureIn,WindDirection,WindDirectionDegrees,WindSpeedMPH,WindSpeedGustMPH,Humidity,HourlyPrecipIn,Conditions,Clouds,dailyrainin,SoftwareType,DateUTC
2014-08-29 00:00:00,58.5,57.4,30.09,ESE,121,1.0,2.0,96,0.00,,,0.00,VWS V14.01,2014-08-29 04:00:00,
2014-08-29 00:01:00,58.5,57.4,30.09,ESE,121,1.0,2.0,96,0.00,,,0.00,VWS V14.01,2014-08-29 04:01:00,
2014-08-29 00:02:00,58.4,57.3,30.09,ESE,121,1.0,2.0,96,0.00,,,0.00,VWS V14.01,2014-08-29 04:02:00,
2014-08-29 00:07:00,58.4,57.3,30.09,ESE,121,1.0,2.0,96,0.00,,,0.00,VWS V14.01,2014-08-29 04:07:00,
2014-08-29 00:12:00,58.3,57.2,30.09,ESE,121,1.0,3.0,96,0.00,,,0.00,VWS V14.01,2014-08-29 04:12:00,
2014-08-29 00:17:00,58.1,57.0,30.09,ESE,121,1.0,3.0,96,0.00,,,0.00,VWS V14.01,2014-08-29 04:17:00,
2014-08-29 00:22:00,58.0,57.2,30.09,ESE,121,1.0,3.0,97,0.00,,,0.00,VWS V14.01,2014-08-29 04:22:00,
2014-08-29 00:27:00,58.0,57.2,30.09,ESE,121,1.0,3.0,97,0.00,,,0.00,VWS V14.01,2014-08-29 04:27:00,
2014-08-29 00:30:00,57.9,57.1,30.09,ESE,121,1.0,3.0,97,0.00,,,0.00,VWS V14.01,2014-08-29 04:30:00,
2014-08-29 00:32:00,57.9,57.1,30.09,ESE,121,1.0,2.0,97,0.00,,,0.00,VWS V14.01,2014-08-29 04:32:00,
2014-08-29 00:37:00,57.9,57.1,30.09,ESE,121,1.0,2.0,97,0.00,,,0.00,VWS V14.01,2014-08-29 04:37:00,
2014-08-29 00:42:00,57.8,57.0,30.09,ESE,121,2.0,3.0,97,0.00,,,0.00,VWS V14.01,2014-08-29 04:42:00,
2014-08-29 00:47:00,57.7,56.9,30.09,ESE,121,1.0,3.0,97,0.00,,,0.00,VWS V14.01,2014-08-29 04:47:00,
2014-08-29 00:52:00,57.6,56.8,30.09,ESE,121,2.0,3.0,97,0.00,,,0.00,VWS V14.01,2014-08-29 04:52:00,
2014-08-29 00:57:00,57.5,56.7,30.09,ESE,121,1.0,3.0,97,0.00,,,0.00,VWS V14.01,2014-08-29 04:57:00,
2014-08-29 01:00:00,57.4,56.6,30.09,ESE,121,1.0,3.0,97,0.00,,,0.00,VWS V14.01,2014-08-29 05:00:00,
2014-08-29 01:02:00,57.3,56.5,30.09,ESE,121,1.0,2.0,97,0.00,,,0.00,VWS V14.01,2014-08-29 05:02:00,
2014-08-29 01:07:00,57.2,56.4,30.09,ESE,121,1.0,3.0,97,0.00,,,0.00,VWS V14.01,2014-08-29 05:07:00,
2014-08-29 01:12:00,57.2,56.4,30.09,ESE,121,1.0,3.0,97,0.00,,,0.00,VWS V14.01,2014-08-29 05:12:00,
2014-08-29 01:17:00,57.2,56.6,30.08,ESE,121,1.0,3.0,98,0.00,,,0.00,VWS V14.01,2014-08-29 05:17:00,
2014-08-29 01:22:00,57.1,56.5,30.08,ESE,121,1.0,3.0,98,0.00,,,0.00,VWS V14.01,2014-08-29 05:22:00,
2014-08-29 01:27:00,57.1,56.5,30.08,ESE,121,1.0,3.0,98,0.00,,,0.00,VWS V14.01,2014-08-29 05:27:00,
2014-08-29 01:30:00,57.2,56.6,30.08,ESE,121,1.0,3.0,98,0.00,,,0.00,VWS V14.01,2014-08-29 05:30:00,
2014-08-29 01:32:00,57.2,56.6,30.08,ESE,121,1.0,2.0,98,0.00,,,0.00,VWS V14.01,2014-08-29 05:32:00,
2014-08-29 01:37:00,57.3,56.7,30.08,ESE,121,1.0,2.0,98,0.00,,,0.00,VWS V14.01,2014-08-29 05:37:00,
2014-08-29 01:43:00,57.3,56.7,30.08,ESE,121,1.0,2.0,98,0.00,,,0.00,VWS V14.01,2014-08-29 05:43:00,
2014-08-29 01:48:00,57.4,57.1,30.08,ESE,121,1.0,3.0,99,0.00,,,0.00,VWS V14.01,2014-08-29 05:48:00,
2014-08-29 01:53:00,57.5,57.2,30.08,ESE,121,1.0,3.0,99,0.00,,,0.00,VWS V14.01,2014-08-29 05:53:00,
2014-08-29 01:58:00,57.7,57.4,30.08,ESE,121,2.0,3.0,99,0.00,,,0.00,VWS V14.01,2014-08-29 05:58:00,
2014-08-29 02:00:00,57.8,57.5,30.08,ESE,121,1.0,3.0,99,0.00,,,0.00,VWS V14.01,2014-08-29 06:00:00,
2014-08-29 02:03:00,57.8,57.2,30.07,ESE,121,1.0,2.0,98,0.00,,,0.00,VWS V14.01,2014-08-29 06:03:00,
2014-08-29 02:08:00,57.8,57.2,30.07,ESE,121,1.0,3.0,98,0.00,,,0.00,VWS V14.01,2014-08-29 06:08:00,
2014-08-29 02:13:00,57.7,57.1,30.07,ESE,121,1.0,3.0,98,0.00,,,0.00,VWS V14.01,2014-08-29 06:13:00,
2014-08-29 02:18:00,57.6,57.0,30.07,ESE,121,1.0,3.0,98,0.00,,,0.00,VWS V14.01,2014-08-29 06:18:00,
2014-08-29 02:23:00,57.5,56.9,30.07,ESE,121,1.0,3.0,98,0.00,,,0.00,VWS V14.01,2014-08-29 06:23:00,
2014-08-29 02:28:00,57.4,56.8,30.07,ESE,121,1.0,3.0,98,0.00,,,0.00,VWS V14.01,2014-08-29 06:28:00,
2014-08-29 02:30:00,57.3,56.7,30.07,ESE,121,1.0,3.0,98,0.00,,,0.00,VWS V14.01,2014-08-29 06:30:00,
2014-08-29 02:33:00,57.3,56.7,30.07,ESE,121,1.0,3.0,98,0.00,,,0.00,VWS V14.01,2014-08-29 06:33:00,
2014-08-29 02:38:00,57.2,56.6,30.08,ESE,121,1.0,3.0,98,0.00,,,0.00,VWS V14.01,2014-08-29 06:38:00,
2014-08-29 02:43:00,57.2,56.6,30.07,ESE,121,1.0,3.0,98,0.00,,,0.00,VWS V14.01,2014-08-29 06:43:00,
2014-08-29 02:48:00,57.1,56.5,30.07,ESE,121,1.0,3.0,98,0.00,,,0.00,VWS V14.01,2014-08-29 06:48:00,
2014-08-29 02:53:00,57.1,56.5,30.07,ESE,121,1.0,3.0,98,0.00,,,0.00,VWS V14.01,2014-08-29 06:53:00,
2014-08-29 02:58:00,57.1,56.5,30.07,ESE,121,1.0,3.0,98,0.00,,,0.00,VWS V14.01,2014-08-29 06:58:00,
2014-08-29 03:00:00,57.0,56.4,30.06,ESE,121,2.0,3.0,98,0.00,,,0.00,VWS V14.01,2014-08-29 07:00:00,
2014-08-29 03:03:00,57.0,56.4,30.06,ESE,121,1.0,3.0,98,0.00,,,0.00,VWS V14.01,2014-08-29 07:03:00,
2014-08-29 03:08:00,57.0,56.4,30.06,ESE,121,1.0,3.0,98,0.00,,,0.00,VWS V14.01,2014-08-29 07:08:00,
2014-08-29 03:13:00,56.8,56.2,30.06,ESE,121,1.0,3.0,98,0.00,,,0.00,VWS V14.01,2014-08-29 07:13:00,
2014-08-29 03:30:00,56.6,56.0,30.06,ESE,112,1.0,3.0,98,0.00,,,0.00,VWS V14.01,2014-08-29 07:30:00,
2014-08-29 04:00:00,56.0,55.2,30.06,ESE,112,1.0,3.0,97,0.00,,,0.00,VWS V14.01,2014-08-29 08:00:00,
2014-08-29 04:30:00,55.8,55.2,30.05,ESE,112,1.0,3.0,98,0.00,,,0.00,VWS V14.01,2014-08-29 08:30:00,
2014-08-29 05:00:00,55.6,55.0,30.05,ESE,112,1.0,3.0,98,0.00,,,0.00,VWS V14.01,2014-08-29 09:00:00,
2014-08-29 05:30:00,55.7,55.2,30.05,ESE,112,1.0,3.0,98,0.00,,,0.00,VWS V14.01,2014-08-29 09:30:00,
2014-08-29 06:00:00,56.0,55.7,30.06,ESE,112,1.0,3.0,99,0.00,,,0.00,VWS V14.01,2014-08-29 10:00:00,
2014-08-29 06:30:00,56.3,56.0,30.07,ESE,112,1.0,3.0,99,0.00,,,0.00,VWS V14.01,2014-08-29 10:30:00,
2014-08-29 07:12:00,56.8,56.5,30.08,ESE,121,2.0,3.0,99,0.00,,,0.00,VWS V14.01,2014-08-29 11:12:00,
2014-08-29 07:17:00,57.0,57.0,30.08,ESE,121,2.0,3.0,100,0.00,,,0.00,VWS V14.01,2014-08-29 11:17:00,
2014-08-29 07:22:00,57.2,56.9,30.08,ESE,121,1.0,3.0,99,0.00,,,0.00,VWS V14.01,2014-08-29 11:22:00,
2014-08-29 07:28:00,57.3,57.0,30.08,ESE,121,2.0,3.0,99,0.00,,,0.00,VWS V14.01,2014-08-29 11:28:00,
2014-08-29 07:33:00,57.4,57.1,30.08,ESE,121,1.0,4.0,99,0.00,,,0.00,VWS V14.01,2014-08-29 11:33:00,
2014-08-29 07:38:00,57.5,57.2,30.08,ESE,121,2.0,4.0,99,0.00,,,0.00,VWS V14.01,2014-08-29 11:38:00,
2014-08-29 07:43:00,57.6,57.3,30.08,ESE,121,2.0,4.0,99,0.00,,,0.00,VWS V14.01,2014-08-29 11:43:00,
2014-08-29 07:48:00,57.7,57.1,30.08,ESE,121,1.0,4.0,98,0.00,,,0.00,VWS V14.01,2014-08-29 11:48:00,
2014-08-29 07:53:00,57.7,57.1,30.08,ESE,121,1.0,4.0,98,0.00,,,0.00,VWS V14.01,2014-08-29 11:53:00,
2014-08-29 07:58:00,57.8,57.2,30.08,ESE,121,1.0,4.0,98,0.00,,,0.00,VWS V14.01,2014-08-29 11:58:00,
2014-08-29 08:03:00,57.8,57.2,30.09,ESE,121,2.0,3.0,98,0.00,,,0.00,VWS V14.01,2014-08-29 12:03:00,
2014-08-29 08:08:00,58.0,57.4,30.09,ESE,121,2.0,4.0,98,0.00,,,0.00,VWS V14.01,2014-08-29 12:08:00,
2014-08-29 08:13:00,58.2,57.6,30.09,ESE,121,1.0,4.0,98,0.00,,,0.00,VWS V14.01,2014-08-29 12:13:00,
2014-08-29 08:18:00,58.3,57.5,30.09,ESE,121,1.0,4.0,97,0.00,,,0.00,VWS V14.01,2014-08-29 12:18:00,
2014-08-29 08:23:00,58.4,57.6,30.09,ESE,121,2.0,4.0,97,0.00,,,0.00,VWS V14.01,2014-08-29 12:23:00,
2014-08-29 08:28:00,58.6,57.8,30.09,ESE,121,2.0,4.0,97,0.00,,,0.00,VWS V14.01,2014-08-29 12:28:00,
2014-08-29 08:33:00,58.9,58.0,30.09,ESE,121,1.0,3.0,97,0.00,,,0.00,VWS V14.01,2014-08-29 12:33:00,
2014-08-29 08:38:00,59.1,58.0,30.09,ESE,121,2.0,3.0,96,0.00,,,0.00,VWS V14.01,2014-08-29 12:38:00,
2014-08-29 08:43:00,59.4,58.3,30.09,ESE,121,2.0,3.0,96,0.00,,,0.00,VWS V14.01,2014-08-29 12:43:00,
2014-08-29 08:48:00,59.7,58.6,30.09,ESE,121,1.0,4.0,96,0.00,,,0.00,VWS V14.01,2014-08-29 12:48:00,
2014-08-29 08:53:00,60.0,58.3,30.09,SW,221,4.0,5.0,94,0.00,,,0.00,VWS V14.01,2014-08-29 12:53:00,
2014-08-29 08:59:00,60.4,57.8,30.09,SSW,194,2.0,5.0,91,0.00,,,0.00,VWS V14.01,2014-08-29 12:59:00,
2014-08-29 09:04:00,60.9,58.3,30.09,SSW,196,3.0,5.0,91,0.00,,,0.00,VWS V14.01,2014-08-29 13:04:00,
2014-08-29 09:09:00,61.2,57.6,30.09,South,183,2.0,5.0,88,0.00,,,0.00,VWS V14.01,2014-08-29 13:09:00,
2014-08-29 09:14:00,61.6,58.0,30.09,SSW,206,2.0,5.0,88,0.00,,,0.00,VWS V14.01,2014-08-29 13:14:00,
2014-08-29 09:19:00,61.9,58.0,30.09,SSW,206,2.0,5.0,87,0.00,,,0.00,VWS V14.01,2014-08-29 13:19:00,
2014-08-29 09:24:00,62.1,58.2,30.09,SSW,201,2.0,5.0,87,0.00,,,0.00,VWS V14.01,2014-08-29 13:24:00,
2014-08-29 09:29:00,62.3,58.1,30.09,SW,217,3.0,5.0,86,0.00,,,0.00,VWS V14.01,2014-08-29 13:29:00,
2014-08-29 09:34:00,62.6,58.4,30.08,SW,217,2.0,4.0,86,0.00,,,0.00,VWS V14.01,2014-08-29 13:34:00,
2014-08-29 09:39:00,62.7,58.5,30.09,SW,217,2.0,4.0,86,0.00,,,0.00,VWS V14.01,2014-08-29 13:39:00,
2014-08-29 09:44:00,62.9,58.3,30.09,SSW,205,2.0,4.0,85,0.00,,,0.00,VWS V14.01,2014-08-29 13:44:00,
2014-08-29 09:49:00,63.0,58.4,30.09,SSW,196,2.0,5.0,85,0.00,,,0.00,VWS V14.01,2014-08-29 13:49:00,
2014-08-29 09:54:00,63.1,58.2,30.08,South,182,2.0,5.0,84,0.00,,,0.00,VWS V14.01,2014-08-29 13:54:00,
2014-08-29 09:59:00,63.3,58.1,30.08,South,182,2.0,5.0,83,0.00,,,0.00,VWS V14.01,2014-08-29 13:59:00,
2014-08-29 10:04:00,63.5,58.2,30.08,SSW,202,3.0,5.0,83,0.00,,,0.00,VWS V14.01,2014-08-29 14:04:00,
2014-08-29 10:09:00,63.7,57.8,30.08,South,172,2.0,5.0,81,0.00,,,0.00,VWS V14.01,2014-08-29 14:09:00,
2014-08-29 10:14:00,63.9,58.0,30.08,SSW,200,2.0,5.0,81,0.00,,,0.00,VWS V14.01,2014-08-29 14:14:00,
2014-08-29 10:19:00,64.0,58.1,30.08,SSW,192,2.0,5.0,81,0.00,,,0.00,VWS V14.01,2014-08-29 14:19:00,
2014-08-29 10:24:00,64.1,58.2,30.08,South,175,3.0,5.0,81,0.00,,,0.00,VWS V14.01,2014-08-29 14:24:00,
2014-08-29 10:29:00,64.2,57.6,30.07,South,190,2.0,5.0,79,0.00,,,0.00,VWS V14.01,2014-08-29 14:29:00,
2014-08-29 10:34:00,64.4,57.8,30.07,South,188,3.0,5.0,79,0.00,,,0.00,VWS V14.01,2014-08-29 14:34:00,
2014-08-29 10:39:00,64.5,57.8,30.07,SSW,206,2.0,5.0,79,0.00,,,0.00,VWS V14.01,2014-08-29 14:39:00,
2014-08-29 10:44:00,64.8,58.1,30.07,SSW,205,2.0,5.0,79,0.00,,,0.00,VWS V14.01,2014-08-29 14:44:00,
2014-08-29 10:49:00,65.1,58.1,30.07,SSW,193,2.0,5.0,78,0.00,,,0.00,VWS V14.01,2014-08-29 14:49:00,
2014-08-29 10:54:00,65.4,58.0,30.08,SW,228,3.0,5.0,77,0.00,,,0.00,VWS V14.01,2014-08-29 14:54:00,
2014-08-29 11:00:00,65.8,58.0,30.08,South,175,2.0,5.0,76,0.00,,,0.00,VWS V14.01,2014-08-29 15:00:00,
2014-08-29 11:05:00,66.1,57.2,30.08,South,182,3.0,4.0,73,0.00,,,0.00,VWS V14.01,2014-08-29 15:05:00,
2014-08-29 11:10:00,66.2,57.7,30.08,SSE,162,2.0,5.0,74,0.00,,,0.00,VWS V14.01,2014-08-29 15:10:00,
2014-08-29 11:15:00,66.4,57.5,30.08,South,182,1.0,5.0,73,0.00,,,0.00,VWS V14.01,2014-08-29 15:15:00,
2014-08-29 11:20:00,66.5,57.2,30.08,SE,141,2.0,5.0,72,0.00,,,0.00,VWS V14.01,2014-08-29 15:20:00,
2014-08-29 11:25:00,66.8,58.3,30.08,SE,144,3.0,5.0,74,0.00,,,0.00,VWS V14.01,2014-08-29 15:25:00,
2014-08-29 11:30:00,67.0,58.1,30.07,SSE,165,3.0,5.0,73,0.00,,,0.00,VWS V14.01,2014-08-29 15:30:00,
2014-08-29 11:35:00,67.3,58.0,30.07,SSE,156,1.0,4.0,72,0.00,,,0.00,VWS V14.01,2014-08-29 15:35:00,
2014-08-29 11:40:00,67.7,59.1,30.07,SE,137,1.0,4.0,74,0.00,,,0.00,VWS V14.01,2014-08-29 15:40:00,
2014-08-29 11:45:00,68.2,57.7,30.07,SSE,159,3.0,4.0,69,0.00,,,0.00,VWS V14.01,2014-08-29 15:45:00,
2014-08-29 11:50:00,68.5,57.9,30.06,SE,142,2.0,5.0,69,0.00,,,0.00,VWS V14.01,2014-08-29 15:50:00,
2014-08-29 11:55:00,68.9,57.5,30.07,SSW,200,4.0,5.0,67,0.00,,,0.00,VWS V14.01,2014-08-29 15:55:00,
2014-08-29 12:00:00,69.2,56.5,30.07,South,177,2.0,5.0,64,0.00,,,0.00,VWS V14.01,2014-08-29 16:00:00,
2014-08-29 12:05:00,69.4,57.6,30.07,SSE,166,2.0,5.0,66,0.00,,,0.00,VWS V14.01,2014-08-29 16:05:00,
2014-08-29 12:10:00,69.3,56.6,30.07,SSW,199,3.0,5.0,64,0.00,,,0.00,VWS V14.01,2014-08-29 16:10:00,
2014-08-29 12:15:00,69.4,55.8,30.07,SW,223,4.0,7.0,62,0.00,,,0.00,VWS V14.01,2014-08-29 16:15:00,
2014-08-29 12:20:00,69.4,57.1,30.07,SSW,200,2.0,7.0,65,0.00,,,0.00,VWS V14.01,2014-08-29 16:20:00,
2014-08-29 12:25:00,69.5,58.1,30.07,SSW,212,3.0,7.0,67,0.00,,,0.00,VWS V14.01,2014-08-29 16:25:00,
2014-08-29 12:30:00,69.7,57.4,30.07,SSW,205,2.0,7.0,65,0.00,,,0.00,VWS V14.01,2014-08-29 16:30:00,
2014-08-29 12:36:00,69.8,57.9,30.07,South,185,1.0,4.0,66,0.00,,,0.00,VWS V14.01,2014-08-29 16:36:00,
2014-08-29 12:41:00,69.8,58.4,30.07,South,170,2.0,4.0,67,0.00,,,0.00,VWS V14.01,2014-08-29 16:41:00,
2014-08-29 12:46:00,69.7,58.3,30.06,South,169,2.0,4.0,67,0.00,,,0.00,VWS V14.01,2014-08-29 16:46:00,
2014-08-29 12:51:00,69.6,58.6,30.06,South,169,3.0,4.0,68,0.00,,,0.00,VWS V14.01,2014-08-29 16:51:00,
2014-08-29 12:56:00,69.4,58.8,30.06,South,169,2.0,4.0,69,0.00,,,0.00,VWS V14.01,2014-08-29 16:56:00,
2014-08-29 13:01:00,69.2,59.0,30.06,South,169,1.0,4.0,70,0.00,,,0.00,VWS V14.01,2014-08-29 17:01:00,
2014-08-29 13:06:00,69.1,59.3,30.06,South,169,3.0,4.0,71,0.00,,,0.00,VWS V14.01,2014-08-29 17:06:00,
2014-08-29 13:11:00,69.0,58.4,30.06,SSW,198,2.0,4.0,69,0.00,,,0.00,VWS V14.01,2014-08-29 17:11:00,
2014-08-29 13:16:00,68.9,58.7,30.06,South,175,2.0,4.0,70,0.00,,,0.00,VWS V14.01,2014-08-29 17:16:00,
2014-08-29 13:21:00,68.9,58.7,30.06,SW,229,3.0,4.0,70,0.00,,,0.00,VWS V14.01,2014-08-29 17:21:00,
2014-08-29 13:26:00,68.9,58.3,30.06,South,185,2.0,4.0,69,0.00,,,0.00,VWS V14.01,2014-08-29 17:26:00,
2014-08-29 13:31:00,68.9,58.7,30.06,South,178,2.0,4.0,70,0.00,,,0.00,VWS V14.01,2014-08-29 17:31:00,
2014-08-29 13:36:00,68.9,59.1,30.06,South,178,1.0,4.0,71,0.00,,,0.00,VWS V14.01,2014-08-29 17:36:00,
2014-08-29 13:41:00,68.9,59.5,30.05,South,178,2.0,4.0,72,0.00,,,0.00,VWS V14.01,2014-08-29 17:41:00,
2014-08-29 13:46:00,69.1,59.7,30.05,SSW,196,3.0,4.0,72,0.00,,,0.00,VWS V14.01,2014-08-29 17:46:00,
2014-08-29 13:51:00,69.5,59.7,30.05,SSW,192,2.0,5.0,71,0.00,,,0.00,VWS V14.01,2014-08-29 17:51:00,
2014-08-29 13:56:00,70.0,59.8,30.05,South,182,1.0,5.0,70,0.00,,,0.00,VWS V14.01,2014-08-29 17:56:00,
2014-08-29 14:01:00,70.6,60.8,30.05,South,176,2.0,3.0,71,0.00,,,0.00,VWS V14.01,2014-08-29 18:01:00,
2014-08-29 14:06:00,71.3,60.6,30.04,SSW,205,2.0,4.0,69,0.00,,,0.00,VWS V14.01,2014-08-29 18:06:00,
2014-08-29 14:11:00,71.7,60.6,30.04,SSE,147,3.0,4.0,68,0.00,,,0.00,VWS V14.01,2014-08-29 18:11:00,
2014-08-29 14:16:00,71.9,61.2,30.04,SE,145,3.0,5.0,69,0.00,,,0.00,VWS V14.01,2014-08-29 18:16:00,
2014-08-29 14:21:00,71.9,61.2,30.04,South,171,2.0,5.0,69,0.00,,,0.00,VWS V14.01,2014-08-29 18:21:00,
2014-08-29 14:26:00,71.7,60.2,30.04,South,171,1.0,5.0,67,0.00,,,0.00,VWS V14.01,2014-08-29 18:26:00,
2014-08-29 14:32:00,71.8,61.1,30.04,South,171,3.0,4.0,69,0.00,,,0.00,VWS V14.01,2014-08-29 18:32:00,
2014-08-29 14:37:00,71.9,60.8,30.03,SSW,210,3.0,4.0,68,0.00,,,0.00,VWS V14.01,2014-08-29 18:37:00,
2014-08-29 14:42:00,71.7,61.0,30.03,South,173,3.0,4.0,69,0.00,,,0.00,VWS V14.01,2014-08-29 18:42:00,
2014-08-29 14:47:00,71.6,60.9,30.03,South,183,2.0,5.0,69,0.00,,,0.00,VWS V14.01,2014-08-29 18:47:00,
2014-08-29 14:52:00,71.9,60.8,30.02,SW,223,2.0,5.0,68,0.00,,,0.00,VWS V14.01,2014-08-29 18:52:00,
2014-08-29 14:57:00,72.4,62.5,30.02,SW,218,3.0,5.0,71,0.00,,,0.00,VWS V14.01,2014-08-29 18:57:00,
2014-08-29 15:02:00,73.5,62.3,30.02,SSW,197,2.0,3.0,68,0.00,,,0.00,VWS V14.01,2014-08-29 19:02:00,
2014-08-29 15:07:00,74.4,61.4,30.02,SW,225,5.0,7.0,64,0.00,,,0.00,VWS V14.01,2014-08-29 19:07:00,
2014-08-29 15:12:00,74.3,61.8,30.02,SSW,207,2.0,7.0,65,0.00,,,0.00,VWS V14.01,2014-08-29 19:12:00,
2014-08-29 15:17:00,74.2,62.1,30.01,SW,219,2.0,7.0,66,0.00,,,0.00,VWS V14.01,2014-08-29 19:17:00,
2014-08-29 15:22:00,74.4,62.3,30.01,SE,145,2.0,7.0,66,0.00,,,0.00,VWS V14.01,2014-08-29 19:22:00,
2014-08-29 15:27:00,75.1,63.0,30.01,SSE,149,3.0,7.0,66,0.00,,,0.00,VWS V14.01,2014-08-29 19:27:00,
2014-08-29 15:32:00,75.8,62.3,30.01,South,188,2.0,4.0,63,0.00,,,0.00,VWS V14.01,2014-08-29 19:32:00,
2014-08-29 15:37:00,75.9,62.9,30.01,SW,226,2.0,5.0,64,0.00,,,0.00,VWS V14.01,2014-08-29 19:37:00,
2014-08-29 15:42:00,76.4,64.6,30.01,SE,139,3.0,5.0,67,0.00,,,0.00,VWS V14.01,2014-08-29 19:42:00,
2014-08-29 15:47:00,76.7,63.2,30.00,SE,128,2.0,5.0,63,0.00,,,0.00,VWS V14.01,2014-08-29 19:47:00,
2014-08-29 15:52:00,76.7,64.1,30.00,SSW,198,3.0,5.0,65,0.00,,,0.00,VWS V14.01,2014-08-29 19:52:00,
2014-08-29 15:57:00,76.8,63.3,30.00,SW,218,4.0,7.0,63,0.00,,,0.00,VWS V14.01,2014-08-29 19:57:00,
2014-08-29 16:02:00,76.9,62.9,30.00,SW,224,4.0,5.0,62,0.00,,,0.00,VWS V14.01,2014-08-29 20:02:00,
2014-08-29 16:08:00,77.0,63.5,30.00,SSW,209,3.0,5.0,63,0.00,,,0.00,VWS V14.01,2014-08-29 20:08:00,
2014-08-29 16:13:00,77.0,63.0,30.00,SW,218,2.0,6.0,62,0.00,,,0.00,VWS V14.01,2014-08-29 20:13:00,
2014-08-29 16:18:00,76.7,63.2,30.00,SW,224,2.0,6.0,63,0.00,,,0.00,VWS V14.01,2014-08-29 20:18:00,
2014-08-29 16:23:00,76.6,64.0,30.00,SW,214,3.0,6.0,65,0.00,,,0.00,VWS V14.01,2014-08-29 20:23:00,